TimeMST,TemperatureF,Dew PointF,Humidity,Sea Level PressureIn,VisibilityMPH,Wind Direction,Wind SpeedMPH,Gust SpeedMPH,PrecipitationIn,Events,Conditions,WindDirDegrees,DateUTC
12:53 AM,21.0,16.0,81,30.06,9.0,SSE,5.8,-,N/A,,Clear,150,2014-01-27 07:53:00
1:53 AM,21.0,16.0,81,30.04,10.0,SSE,6.9,-,N/A,,Clear,150,2014-01-27 08:53:00
2:53 AM,21.0,16.0,81,30.02,10.0,SSE,4.6,-,N/A,,Clear,150,2014-01-27 09:53:00
3:53 AM,21.0,15.1,78,30.01,10.0,South,3.5,-,N/A,,Clear,180,2014-01-27 10:53:00
4:53 AM,18.0,14.0,84,30.04,10.0,SSE,4.6,-,N/A,,Clear,150,2014-01-27 11:53:00
5:53 AM,19.9,14.0,78,30.05,10.0,SE,9.2,-,N/A,,Clear,140,2014-01-27 12:53:00
6:53 AM,19.9,14.0,78,30.07,10.0,South,6.9,-,N/A,,Clear,170,2014-01-27 13:53:00
7:53 AM,19.9,14.0,78,30.10,10.0,ESE,3.5,-,N/A,,Clear,110,2014-01-27 14:53:00
8:53 AM,26.1,17.1,69,30.09,10.0,SSE,4.6,-,N/A,,Clear,160,2014-01-27 15:53:00
9:53 AM,32.0,16.0,52,30.06,10.0,Calm,Calm,-,N/A,,Clear,0,2014-01-27 16:53:00
10:53 AM,36.0,19.0,50,30.04,10.0,NW,5.8,-,N/A,,Clear,310,2014-01-27 17:53:00
11:53 AM,37.9,19.9,48,30.00,10.0,NW,6.9,-,N/A,,Scattered Clouds,310,2014-01-27 18:53:00
12:53 PM,41.0,19.0,41,29.96,10.0,NNE,3.5,-,N/A,,Clear,30,2014-01-27 19:53:00
1:53 PM,44.1,21.0,40,29.90,10.0,Calm,Calm,-,N/A,,Clear,0,2014-01-27 20:53:00
2:53 PM,44.1,19.0,37,29.90,10.0,NNW,5.8,-,N/A,,Partly Cloudy,330,2014-01-27 21:53:00
3:53 PM,46.0,18.0,33,29.87,10.0,NNE,3.5,-,N/A,,Clear,30,2014-01-27 22:53:00
4:53 PM,41.0,19.9,43,29.92,10.0,North,5.8,-,N/A,,Partly Cloudy,350,2014-01-27 23:53:00
5:53 PM,37.0,21.9,54,29.92,10.0,East,3.5,-,N/A,,Mostly Cloudy,90,2014-01-28 00:53:00
6:53 PM,34.0,21.9,61,29.96,10.0,NNE,4.6,-,N/A,,Overcast,30,2014-01-28 01:53:00
7:53 PM,35.1,21.0,57,29.99,10.0,NNW,5.8,-,N/A,,Overcast,340,2014-01-28 02:53:00
8:53 PM,33.1,21.9,64,30.00,10.0,NNE,6.9,-,N/A,,Overcast,30,2014-01-28 03:53:00
9:53 PM,33.1,21.0,61,30.01,10.0,Variable,4.6,-,N/A,,Scattered Clouds,0,2014-01-28 04:53:00
10:53 PM,34.0,21.9,61,30.03,10.0,NNW,11.5,-,N/A,,Overcast,340,2014-01-28 05:53:00
11:53 PM,34.0,21.9,61,30.04,10.0,NNE,6.9,-,N/A,,Overcast,20,2014-01-28 06:53:00